K5NCO Weather Reports


time (UTC)temp
C
wind
direction
speed
KPH
gust
KPH
rain 1hr
cm
rain 24hr
cm
rain mn
cm
humidity
%
barometer
mb
20240614112157 23 178 0.0 0.0 0.00 0.00 0.00 96 1017.1
20240614111655 23 178 0.0 0.0 0.00 0.00 0.00 96 1016.9
20240614111155 23 178 0.0 0.0 0.00 0.00 0.00 96 1016.6
20240614110653 23 178 0.0 0.0 0.00 0.00 0.00 96 1016.6
20240614110151 23 178 0.0 0.0 0.00 0.00 0.00 95 1016.6
20240614105650 23 178 0.0 0.0 0.00 0.00 0.00 95 1016.5
20240614105150 23 178 0.0 0.0 0.00 0.00 0.00 95 1016.4
20240614104649 23 178 0.0 0.0 0.00 0.00 0.00 94 1016.3
20240614104148 23 178 0.0 0.0 0.00 0.00 0.00 94 1016.1
20240614103647 23 178 0.0 0.0 0.00 0.00 0.00 94 1015.9
20240614103145 24 178 0.0 0.0 0.00 0.00 0.00 93 1015.9
20240614102643 24 178 0.0 0.0 0.00 0.00 0.00 93 1016.0
20240614102142 24 178 0.0 0.0 0.00 0.00 0.00 93 1015.9
20240614101640 24 178 0.0 0.0 0.00 0.00 0.00 92 1015.8
20240614101139 25 178 0.0 0.0 0.00 0.00 0.00 92 1015.8
20240614100638 25 178 1.6 1.6 0.00 0.00 0.00 92 1015.7
20240614100137 25 178 0.0 1.6 0.00 0.00 0.00 91 1015.6
20240614095637 25 178 0.0 0.0 0.00 0.00 0.00 91 1015.8
20240614095135 25 178 0.0 0.0 0.00 0.00 0.00 91 1015.8
20240614094635 25 179 0.0 1.6 0.00 0.00 0.00 91 1015.7
20240614094134 25 145 0.0 1.6 0.00 0.00 0.00 91 1015.7
20240614093633 25 207 0.0 0.0 0.00 0.00 0.00 91 1015.6
20240614093132 25 194 1.6 1.6 0.00 0.00 0.00 91 1015.6
20240614092631 25 80 1.6 1.6 0.00 0.00 0.00 91 1015.5
20240614092131 25 208 1.6 1.6 0.00 0.00 0.00 91 1015.3
20240614091630 25 205 1.6 1.6 0.00 0.00 0.00 91 1015.6
20240614091128 25 224 0.0 0.0 0.00 0.00 0.00 91 1015.5
20240614090627 25 225 0.0 1.6 0.00 0.00 0.00 91 1015.6
20240614090126 25 165 0.0 0.0 0.00 0.00 0.00 90 1015.6
20240614085624 25 166 0.0 0.0 0.00 0.00 0.00 90 1015.4
20240614085124 25 152 0.0 0.0 0.00 0.00 0.00 90 1015.4
20240614084623 25 190 3.2 3.2 0.00 0.00 0.00 89 1015.4
20240614084123 25 142 3.2 3.2 0.00 0.00 0.00 89 1015.4
20240614083622 25 164 1.6 1.6 0.00 0.00 0.00 89 1015.5
20240614083121 25 179 0.0 1.6 0.00 0.00 0.00 89 1015.4
20240614082618 25 179 0.0 1.6 0.00 0.00 0.00 89 1015.5
20240614082117 25 179 0.0 0.0 0.00 0.00 0.00 88 1015.7
20240614081612 25 185 0.0 0.0 0.00 0.00 0.00 88 1015.5
20240614081111 25 185 0.0 1.6 0.00 0.00 0.00 88 1015.4
20240614080608 25 185 0.0 0.0 0.00 0.00 0.00 87 1015.4
20240614080106 25 176 1.6 3.2 0.00 0.00 0.00 87 1015.4
20240614075604 25 180 1.6 1.6 0.00 0.00 0.00 86 1015.4
20240614075103 25 187 3.2 4.8 0.00 0.00 0.00 86 1015.5
20240614074603 25 173 4.8 4.8 0.00 0.00 0.00 86 1015.5
20240614074102 25 210 1.6 1.6 0.00 0.00 0.00 85 1015.4
20240614073559 26 203 3.2 3.2 0.00 0.00 0.00 85 1015.4
20240614073058 25 182 1.6 1.6 0.00 0.00 0.00 84 1015.5
20240614072557 25 233 0.0 1.6 0.00 0.00 0.00 84 1015.7
20240614072056 25 151 1.6 1.6 0.00 0.00 0.00 84 1015.5
20240614071556 25 151 1.6 1.6 0.00 0.00 0.00 84 1015.5
20240614071055 25 91 3.2 3.2 0.00 0.00 0.00 84 1015.7
20240614070554 25 302 1.6 1.6 0.00 0.00 0.00 84 1015.6
20240614070053 25 285 0.0 0.0 0.00 0.00 0.00 84 1015.4
20240614065552 25 266 0.0 0.0 0.00 0.00 0.00 84 1015.5
20240614065051 26 253 0.0 0.0 0.00 0.00 0.00 84 1015.5
20240614064549 26 340 1.6 1.6 0.00 0.00 0.00 83 1015.4
20240614064048 25 245 0.0 0.0 0.00 0.00 0.00 85 1015.4
20240614063548 25 342 0.0 0.0 0.00 0.00 0.00 86 1015.5
20240614063046 25 342 0.0 1.6 0.00 0.00 0.00 85 1015.8
20240614062546 25 329 0.0 0.0 0.00 0.00 0.00 85 1015.6
20240614062044 25 329 0.0 0.0 0.00 0.00 0.00 85 1015.4
20240614061543 26 329 0.0 0.0 0.00 0.00 0.00 85 1015.7
20240614061041 25 320 0.0 0.0 0.00 0.00 0.00 85 1015.7
20240614060540 25 320 0.0 0.0 0.00 0.00 0.00 85 1015.8
20240614060038 26 320 0.0 0.0 0.00 0.00 0.00 84 1015.7
20240614055538 26 320 0.0 0.0 0.00 0.00 0.00 84 1015.9
20240614055038 26 312 0.0 0.0 0.00 0.00 0.00 84 1015.8
20240614054537 26 332 0.0 1.6 0.00 0.00 0.00 84 1015.8
20240614054037 26 332 0.0 1.6 0.00 0.00 0.00 84 1015.7
20240614053536 26 344 0.0 0.0 0.00 0.00 0.00 85 1015.7
20240614053034 26 344 0.0 0.0 0.00 0.00 0.00 85 1015.7
20240614052532 26 345 0.0 0.0 0.00 0.00 0.00 86 1015.7
20240614052032 26 345 0.0 0.0 0.00 0.00 0.00 85 1015.7
20240614051531 26 345 0.0 0.0 0.00 0.00 0.00 85 1015.7
20240614051029 26 344 0.0 0.0 0.00 0.00 0.00 85 1015.8
20240614050527 26 344 0.0 0.0 0.00 0.00 0.00 85 1015.9
20240614050025 26 344 0.0 0.0 0.00 0.00 0.00 84 1016.0
20240614045520 26 344 0.0 0.0 0.00 0.00 0.00 84 1015.8
20240614045019 26 341 0.0 0.0 0.00 0.00 0.00 84 1015.9
20240614044517 26 341 0.0 0.0 0.00 0.00 0.00 83 1016.0
20240614044015 26 341 0.0 0.0 0.00 0.00 0.00 83 1015.7
20240614043514 26 341 0.0 0.0 0.00 0.00 0.00 83 1015.7
20240614043012 26 341 0.0 0.0 0.00 0.00 0.00 83 1015.8
20240614042509 26 340 0.0 0.0 0.00 0.00 0.00 83 1015.8
20240614042009 26 340 0.0 0.0 0.00 0.00 0.00 83 1015.6
20240614041507 26 340 0.0 1.6 0.00 0.00 0.00 82 1015.7
20240614041007 26 339 0.0 0.0 0.00 0.00 0.00 81 1015.9
20240614040506 27 339 0.0 0.0 0.00 0.00 0.00 80 1015.8
20240614040005 27 339 0.0 0.0 0.00 0.00 0.00 79 1015.7
20240614035503 27 339 0.0 0.0 0.00 0.00 0.00 79 1015.6
20240614035003 27 339 0.0 0.0 0.00 0.00 0.00 78 1015.6
20240614034501 27 339 0.0 0.0 0.00 0.00 0.00 77 1015.5
20240614034001 27 340 0.0 0.0 0.00 0.00 0.00 77 1015.6
20240614033500 27 333 0.0 0.0 0.00 0.00 0.00 77 1015.4
20240614032956 27 333 0.0 0.0 0.00 0.00 0.00 77 1015.5
20240614032454 27 333 0.0 0.0 0.00 0.00 0.00 76 1015.3
20240614031954 27 333 0.0 0.0 0.00 0.00 0.00 76 1015.4
20240614031453 27 333 0.0 0.0 0.00 0.00 0.00 76 1015.1
20240614030951 27 271 0.0 0.0 0.00 0.00 0.00 75 1015.0
20240614030449 27 332 0.0 0.0 0.00 0.00 0.00 75 1014.8
20240614025947 27 332 0.0 0.0 0.00 0.00 0.00 75 1014.8
20240614025446 28 332 0.0 0.0 0.00 0.00 0.00 74 1015.1
20240614024945 28 332 0.0 0.0 0.00 0.00 0.00 73 1015.0
20240614024443 28 332 0.0 0.0 0.00 0.00 0.00 72 1014.7
20240614023942 28 265 0.0 0.0 0.00 0.00 0.00 71 1014.9
20240614023441 28 144 1.6 3.2 0.00 0.00 0.00 71 1014.5
20240614022940 28 5 0.0 0.0 0.00 0.00 0.00 72 1014.4
20240614022439 28 264 0.0 0.0 0.00 0.00 0.00 71 1014.4
20240614021938 28 319 0.0 0.0 0.00 0.00 0.00 71 1014.4
20240614021436 28 249 0.0 1.6 0.00 0.00 0.00 70 1014.7
20240614020934 29 158 0.0 0.0 0.00 0.00 0.00 70 1014.5
20240614020433 29 210 0.0 0.0 0.00 0.00 0.00 70 1014.6
20240614015930 29 6 0.0 0.0 0.00 0.00 0.00 69 1014.6
20240614015429 29 10 1.6 1.6 0.00 0.00 0.00 69 1014.4
20240614014928 30 307 0.0 0.0 0.00 0.00 0.00 68 1014.3
20240614014428 30 266 0.0 1.6 0.00 0.00 0.00 67 1014.4
20240614013927 30 60 0.0 1.6 0.00 0.00 0.00 67 1014.4
20240614013427 30 250 0.0 0.0 0.00 0.00 0.00 66 1014.4
20240614012925 30 137 0.0 1.6 0.00 0.00 0.00 66 1014.3
20240614012425 30 263 0.0 1.6 0.00 0.00 0.00 65 1014.5
20240614011923 30 53 3.2 3.2 0.00 0.00 0.00 65 1014.3
20240614011420 30 51 1.6 4.8 0.00 0.00 0.00 63 1014.3
20240614010920 31 311 0.0 0.0 0.00 0.00 0.00 62 1014.4
20240614010418 31 9 1.6 1.6 0.00 0.00 0.00 61 1014.3
20240614005915 31 123 1.6 3.2 0.00 0.00 0.00 61 1014.4
20240614005413 31 267 1.6 3.2 0.00 0.00 0.00 60 1014.4
20240614004912 31 41 3.2 6.4 0.00 0.00 0.00 59 1014.2
20240614004410 31 185 1.6 3.2 0.00 0.00 0.00 59 1014.2
20240614003908 31 204 1.6 1.6 0.00 0.00 0.00 59 1014.2
20240614003408 32 282 3.2 3.2 0.00 0.00 0.00 58 1014.3
20240614002906 32 210 0.0 0.0 0.00 0.00 0.00 59 1014.3
20240614002405 32 342 1.6 1.6 0.00 0.00 0.00 57 1014.2
20240614001904 32 12 1.6 3.2 0.00 0.00 0.00 56 1014.2
20240614001402 32 346 3.2 3.2 0.00 0.00 0.00 55 1014.5
20240614000902 32 63 3.2 4.8 0.00 0.00 0.00 56 1014.4
20240614000400 33 130 1.6 3.2 0.00 0.00 0.00 57 1014.4
20240613235859 33 211 1.6 3.2 0.00 0.00 0.00 54 1014.3
20240613235359 34 52 3.2 3.2 0.00 0.00 0.00 51 1014.3
20240613234858 33 316 0.0 1.6 0.00 0.00 0.00 51 1014.5
20240613234355 33 310 0.0 1.6 0.00 0.00 0.00 53 1014.2
20240613233853 33 85 4.8 6.4 0.00 0.00 0.00 54 1014.4
20240613233351 33 314 1.6 3.2 0.00 0.00 0.00 52 1014.5
20240613232848 33 324 0.0 0.0 0.00 0.00 0.00 54 1014.6
20240613232347 33 239 1.6 1.6 0.00 0.00 0.00 54 1014.3
20240613231345 33 310 3.2 4.8 0.00 0.00 0.00 53 1014.2
20240613230844 34 299 1.6 3.2 0.00 0.00 0.00 51 1014.4
20240613230342 35 285 1.6 1.6 0.00 0.00 0.00 51 1014.5
20240613225839 34 305 1.6 1.6 0.00 0.00 0.00 53 1014.3
20240613225338 33 306 1.6 1.6 0.00 0.00 0.00 56 1014.4
20240613224833 34 303 1.6 1.6 0.00 0.00 0.00 53 1014.6
20240613224326 35 296 1.6 3.2 0.00 0.00 0.00 50 1014.4
20240613223826 35 313 1.6 3.2 0.00 0.00 0.00 50 1014.6
20240613223327 33 133 1.6 1.6 0.00 0.00 0.00 54 1014.4
20240613222826 34 205 3.2 3.2 0.00 0.00 0.00 53 1014.6
20240613222325 34 303 1.6 1.6 0.00 0.00 0.00 52 1014.5
20240613221823 34 222 1.6 3.2 0.00 0.00 0.00 54 1014.7
20240613221322 33 18 3.2 4.8 0.00 0.00 0.00 55 1014.7
20240613220820 32 77 4.8 9.7 0.00 0.00 0.00 56 1014.7
20240613220318 33 152 6.4 11.3 0.00 0.00 0.00 54 1014.9
20240613215818 33 51 1.6 4.8 0.00 0.00 0.00 54 1014.7
20240613215315 33 279 1.6 3.2 0.00 0.00 0.00 56 1014.6
20240613214815 35 355 3.2 4.8 0.00 0.00 0.00 53 1014.9
20240613214314 35 308 1.6 1.6 0.00 0.00 0.00 48 1014.7
20240613213812 35 7 1.6 3.2 0.00 0.00 0.00 52 1014.8
20240613213311 33 258 0.0 1.6 0.00 0.00 0.00 54 1015.0
20240613212811 33 3 1.6 1.6 0.00 0.00 0.00 55 1015.0
20240613212309 34 125 1.6 1.6 0.00 0.00 0.00 54 1015.0
20240613211807 33 344 1.6 1.6 0.00 0.00 0.00 56 1014.9
20240613211307 33 40 1.6 3.2 0.00 0.00 0.00 56 1015.0
20240613210806 35 201 3.2 3.2 0.00 0.00 0.00 53 1015.0
20240613210304 33 196 3.2 4.8 0.00 0.00 0.00 56 1015.2
20240613205803 36 296 3.2 4.8 0.00 0.00 0.00 48 1015.3
20240613205301 36 95 0.0 1.6 0.00 0.00 0.00 49 1015.3
20240613204759 35 303 1.6 1.6 0.00 0.00 0.00 49 1015.4
20240613204258 33 103 4.8 4.8 0.00 0.00 0.00 53 1015.5
20240613203759 35 175 6.4 9.7 0.00 0.00 0.00 52 1015.3
20240613203257 33 282 3.2 3.2 0.00 0.00 0.00 52 1015.3
20240613202755 33 111 3.2 6.4 0.00 0.00 0.00 56 1015.5
20240613202254 33 178 6.4 11.3 0.00 0.00 0.00 53 1015.5
20240613201753 34 291 1.6 1.6 0.00 0.00 0.00 52 1015.7
20240613201253 35 231 3.2 3.2 0.00 0.00 0.00 49 1015.6
20240613200751 34 211 0.0 0.0 0.00 0.00 0.00 52 1015.7
20240613200249 33 150 1.6 1.6 0.00 0.00 0.00 52 1015.8
20240613195747 33 182 1.6 1.6 0.00 0.00 0.00 54 1015.8
20240613195245 33 328 1.6 1.6 0.00 0.00 0.00 55 1015.7
20240613194744 34 299 3.2 3.2 0.00 0.00 0.00 56 1016.0
20240613194242 33 254 3.2 3.2 0.00 0.00 0.00 53 1015.7
20240613193741 34 179 1.6 3.2 0.00 0.00 0.00 55 1015.8
20240613193239 32 206 3.2 4.8 0.00 0.00 0.00 58 1015.9
20240613192737 32 138 3.2 4.8 0.00 0.00 0.00 57 1016.0
20240613192236 32 8 3.2 4.8 0.00 0.00 0.00 56 1016.0
20240613191735 33 167 4.8 6.4 0.00 0.00 0.00 59 1016.0
20240613191233 32 316 0.0 1.6 0.00 0.00 0.00 58 1016.1
20240613190733 33 139 3.2 3.2 0.00 0.00 0.00 55 1016.0
20240613190233 33 41 3.2 4.8 0.00 0.00 0.00 55 1016.0
20240613185732 33 208 1.6 1.6 0.00 0.00 0.00 56 1016.2
20240613185232 35 328 0.0 1.6 0.00 0.00 0.00 50 1016.3
20240613184731 33 238 1.6 3.2 0.00 0.00 0.00 52 1016.5
20240613184230 35 302 1.6 3.2 0.00 0.00 0.00 53 1016.4
20240613183728 34 211 4.8 4.8 0.00 0.00 0.00 53 1016.4
20240613183227 34 317 1.6 4.8 0.00 0.00 0.00 52 1016.4
20240613182726 33 95 0.0 1.6 0.00 0.00 0.00 55 1016.5
20240613182225 34 127 8.0 11.3 0.00 0.00 0.00 56 1016.6
20240613181723 33 326 0.0 0.0 0.00 0.00 0.00 53 1016.6
20240613181222 32 244 0.0 1.6 0.00 0.00 0.00 54 1016.6
20240613180721 33 126 3.2 4.8 0.00 0.00 0.00 55 1016.8
20240613180221 33 238 3.2 3.2 0.00 0.00 0.00 57 1016.8
20240613175719 32 275 0.0 0.0 0.00 0.00 0.00 54 1016.9
20240613175219 33 38 3.2 4.8 0.00 0.00 0.00 53 1016.9
20240613174717 33 249 1.6 1.6 0.00 0.00 0.00 57 1017.0
20240613174215 32 161 3.2 3.2 0.00 0.00 0.00 58 1017.1
20240613173715 32 154 6.4 6.4 0.00 0.00 0.00 61 1016.9
20240613173214 31 120 1.6 3.2 0.00 0.00 0.00 64 1017.0
20240613172712 33 126 3.2 3.2 0.00 0.00 0.00 56 1017.1
20240613172212 32 284 0.0 0.0 0.00 0.00 0.00 59 1017.0
20240613171710 31 341 0.0 1.6 0.00 0.00 0.00 64 1017.1
20240613171209 32 134 1.6 3.2 0.00 0.00 0.00 64 1017.1
20240613170707 31 92 4.8 4.8 0.00 0.00 0.00 64 1017.0
20240613170206 31 119 4.8 6.4 0.00 0.00 0.00 64 1017.2
20240613165705 31 183 3.2 3.2 0.00 0.00 0.00 67 1017.0
20240613165203 30 148 0.0 0.0 0.00 0.00 0.00 68 1017.1
20240613164703 31 119 6.4 6.4 0.00 0.00 0.00 66 1016.9
20240613164201 31 291 0.0 0.0 0.00 0.00 0.00 64 1017.0
20240613163659 30 167 3.2 3.2 0.00 0.00 0.00 66 1017.1
20240613163157 30 270 1.6 1.6 0.00 0.00 0.00 69 1017.1
20240613162655 31 76 3.2 4.8 0.00 0.00 0.00 66 1017.2
20240613162153 32 154 3.2 3.2 0.00 0.00 0.00 64 1017.0
20240613161653 31 278 1.6 1.6 0.00 0.00 0.00 65 1017.1
20240613161152 31 170 3.2 4.8 0.00 0.00 0.00 66 1017.0
20240613160651 30 140 1.6 3.2 0.00 0.00 0.00 68 1017.0
20240613160149 30 251 1.6 1.6 0.00 0.00 0.00 68 1017.2
20240613155649 30 293 3.2 3.2 0.00 0.00 0.00 67 1017.2
20240613155147 31 190 6.4 6.4 0.00 0.00 0.00 67 1016.9
20240613154646 30 310 0.0 0.0 0.00 0.00 0.00 67 1017.1
20240613154145 29 136 1.6 3.2 0.00 0.00 0.00 71 1017.0
20240613153643 30 197 3.2 3.2 0.00 0.00 0.00 70 1017.2
20240613153142 29 133 3.2 3.2 0.00 0.00 0.00 72 1017.1
20240613152640 30 126 4.8 6.4 0.00 0.00 0.00 71 1017.2
20240613152140 29 86 1.6 3.2 0.00 0.00 0.00 73 1017.0
20240613151638 30 21 3.2 3.2 0.00 0.00 0.00 71 1017.1
20240613151137 28 303 1.6 1.6 0.00 0.00 0.00 75 1017.3
20240613150636 28 183 6.4 6.4 0.00 0.00 0.00 74 1017.2
20240613150137 28 168 1.6 3.2 0.00 0.00 0.00 78 1017.1
20240613145635 28 224 1.6 1.6 0.00 0.00 0.00 79 1017.3
20240613145133 28 2 3.2 3.2 0.00 0.00 0.00 75 1017.2
20240613144633 28 103 1.6 3.2 0.00 0.00 0.00 76 1017.3
20240613144132 28 222 3.2 4.8 0.00 0.00 0.00 76 1017.0
20240613143631 28 92 4.8 4.8 0.00 0.00 0.00 77 1017.4
20240613143130 28 20 3.2 3.2 0.00 0.00 0.00 78 1017.2
20240613142629 27 244 0.0 1.6 0.00 0.00 0.00 80 1017.3
20240613142127 26 141 3.2 3.2 0.00 0.00 0.00 83 1017.3
20240613141627 27 199 1.6 4.8 0.00 0.00 0.00 84 1017.1
20240613141126 27 224 0.0 1.6 0.00 0.00 0.00 83 1017.1
20240613140624 27 55 4.8 4.8 0.00 0.00 0.00 81 1016.8
20240613140122 27 217 0.0 0.0 0.00 0.00 0.00 82 1017.0
20240613135621 27 185 1.6 1.6 0.00 0.00 0.00 84 1017.0
20240613135120 27 204 0.0 1.6 0.00 0.00 0.00 84 1016.9
20240613134618 27 159 3.2 3.2 0.00 0.00 0.00 82 1016.9
20240613134118 28 223 0.0 0.0 0.00 0.00 0.00 82 1016.9
20240613133617 27 223 1.6 1.6 0.00 0.00 0.00 83 1016.8
20240613133115 27 228 0.0 0.0 0.00 0.00 0.00 83 1016.8
20240613132615 27 241 0.0 1.6 0.00 0.00 0.00 86 1016.7
20240613132114 26 241 0.0 0.0 0.00 0.00 0.00 89 1016.8
20240613131614 26 241 0.0 0.0 0.00 0.00 0.00 92 1016.5
20240613131112 25 241 0.0 0.0 0.00 0.00 0.00 94 1016.7
20240613130611 25 241 0.0 0.0 0.00 0.00 0.00 96 1016.5
20240613130109 25 241 0.0 0.0 0.00 0.00 0.00 97 1016.9
20240613125608 24 242 0.0 0.0 0.00 0.00 0.00 97 1016.5
20240613125107 24 242 0.0 0.0 0.00 0.00 0.00 98 1016.5
20240613124606 23 242 0.0 0.0 0.00 0.00 0.00 98 1016.3
20240613124104 23 242 0.0 0.0 0.00 0.00 0.00 98 1016.3
20240613123602 23 242 0.0 0.0 0.00 0.00 0.00 99 1016.1
20240613123102 23 241 0.0 0.0 0.00 0.00 0.00 99 1016.1
20240613122601 23 241 0.0 0.0 0.00 0.00 0.00 99 1016.0
20240613122100 23 242 0.0 0.0 0.00 0.00 0.00 99 1016.0
20240613121557 23 241 0.0 0.0 0.00 0.00 0.00 99 1015.8
20240613121056 23 242 0.0 0.0 0.00 0.00 0.00 99 1015.9
20240613120554 22 242 0.0 0.0 0.00 0.00 0.00 99 1015.8
20240613120053 22 241 0.0 0.0 0.00 0.00 0.00 99 1015.9
20240613115552 22 241 0.0 0.0 0.00 0.00 0.00 98 1016.0
20240613115050 22 241 0.0 0.0 0.00 0.00 0.00 99 1015.9
20240613114549 22 241 0.0 0.0 0.00 0.00 0.00 98 1015.9
20240613114047 22 241 0.0 0.0 0.00 0.00 0.00 98 1015.6
20240613113546 22 241 0.0 0.0 0.00 0.00 0.00 98 1015.7
20240613113045 22 241 0.0 0.0 0.00 0.00 0.00 98 1015.8
20240613112544 22 241 0.0 0.0 0.00 0.00 0.00 98 1015.5